Location: Central Falls
(41.8900°N, 71.3929°W)
Time: 15:54:41
(UTC+00:00)

Vanguard 1 - Pass Details

Date: 03 December 2023
Orbit: 653 x 3826 km, 34.3° (Epoch: 24 February)

Event Time Altitude Azimuth Distance (km) Brightness Sun altitude
Rises 00:50:42 0° 255° (WSW) 6,448 15.0 -39.4°
Reaches altitude 10° 00:54:23 10° 253° (WSW) 5,761 14.6 -40.1°
Maximum altitude 01:14:02 70° 175° (S) 3,908 12.7 -43.8°
Enters shadow 01:17:13 65° 140° (SE) 4,031 12.7 -44.3°
Drops below altitude 10° 01:36:55 10° 99° (E) 6,552 - -47.9°
Sets 01:41:27 0° 97° (E) 7,325 - -48.7°
